Total_Precipitation_Accumulation
0.00 0.00 0.00 0.00 0.00 0.00 0.00 0.00 0.01 0.02 0.01 0.00 0.00 0.01 0.02 0.02 0.03 0.04 0.05 0.05 0.04 0.04 0.05 0.08 0.08 0.09 0.12 0.14 0.10 0.05 0.03 0.03 0.03 0.02 0.01 0.01 0.01 0.00 0.00 0.00 0.00 0.01 0.00
0.00 0.00 0.00 0.00 0.00 0.00 0.00 0.00 0.01 0.02 0.03 0.03 0.01 0.01 0.02 0.02 0.02 0.03 0.05 0.06 0.06 0.06 0.05 0.07 0.09 0.12 0.12 0.11 0.09 0.06 0.04 0.03 0.02 0.01 0.01 0.04 0.07 0.03 0.01 0.02 0.02 0.02 0.00
0.00 0.00 0.00 0.00 0.00 0.00 0.00 0.00 0.01 0.03 0.05 0.06 0.05 0.04 0.02 0.01 0.01 0.02 0.04 0.06 0.08 0.09 0.07 0.07 0.08 0.10 0.11 0.09 0.06 0.04 0.02 0.02 0.01 0.01 0.02 0.04 0.14 0.08 0.05 0.07 0.14 0.10 0.02
0.01 0.00 0.00 0.00 0.01 0.01 0.01 0.00 0.01 0.03 0.07 0.10 0.11 0.10 0.06 0.02 0.02 0.03 0.04 0.04 0.07 0.07 0.06 0.06 0.05 0.06 0.05 0.04 0.03 0.02 0.01 0.00 0.00 0.01 0.01 0.02 0.07 0.04 0.02 0.08 0.20 0.22 0.15
0.01 0.00 0.00 0.00 0.01 0.03 0.03 0.02 0.02 0.04 0.08 0.12 0.15 0.15 0.10 0.04 0.02 0.04 0.06 0.06 0.06 0.08 0.10 0.08 0.05 0.03 0.02 0.02 0.02 0.01 0.00 0.00 0.01 0.05 0.05 0.07 0.10 0.07 0.02 0.04 0.14 0.23 0.23
0.00 0.00 0.00 0.01 0.01 0.04 0.06 0.05 0.04 0.06 0.09 0.13 0.17 0.16 0.10 0.04 0.03 0.05 0.08 0.08 0.09 0.11 0.15 0.14 0.13 0.09 0.06 0.03 0.02 0.02 0.02 0.02 0.05 0.13 0.10 0.10 0.13 0.09 0.03 0.01 0.07 0.19 0.21
0.00 0.00 0.00 0.01 0.02 0.05 0.06 0.05 0.05 0.07 0.09 0.13 0.15 0.12 0.07 0.03 0.02 0.03 0.07 0.09 0.12 0.15 0.14 0.12 0.12 0.10 0.10 0.09 0.08 0.08 0.10 0.12 0.14 0.16 0.13 0.11 0.10 0.05 0.03 0.02 0.02 0.04 0.07
0.00 0.00 0.00 0.01 0.02 0.09 0.14 0.07 0.03 0.04 0.06 0.11 0.15 0.13 0.08 0.06 0.07 0.09 0.09 0.11 0.13 0.11 0.08 0.10 0.11 0.11 0.13 0.16 0.16 0.17 0.18 0.19 0.16 0.13 0.08 0.05 0.05 0.03 0.06 0.09 0.05 0.03 0.03
0.01 0.01 0.00 0.01 0.01 0.04 0.05 0.02 0.01 0.02 0.05 0.10 0.15 0.19 0.15 0.12 0.18 0.20 0.16 0.15 0.20 0.16 0.12 0.14 0.16 0.14 0.18 0.23 0.18 0.15 0.14 0.11 0.07 0.04 0.03 0.02 0.02 0.02 0.03 0.04 0.04 0.03 0.03
0.10 0.17 0.06 0.04 0.01 0.01 0.00 0.00 0.00 0.00 0.02 0.05 0.08 0.11 0.12 0.13 0.16 0.17 0.14 0.13 0.17 0.12 0.09 0.09 0.12 0.12 0.10 0.08 0.05 0.03 0.02 0.02 0.01 0.00 0.00 0.00 0.00 0.00 0.00 0.00 0.01 0.03 0.02
0.14 0.26 0.11 0.05 0.01 0.00 0.00 0.00 0.00 0.00 0.00 0.01 0.02 0.03 0.06 0.12 0.13 0.12 0.08 0.08 0.06 0.04 0.02 0.02 0.02 0.01 0.01 0.01 0.00 0.00 0.00 0.00 0.00 0.00 0.00 0.00 0.00 0.00 0.00 0.00 0.00 0.00 0.01
0.18 0.19 0.17 0.02 0.00 0.00 0.00 0.00 0.01 0.01 0.00 0.02 0.02 0.03 0.07 0.10 0.10 0.07 0.04 0.03 0.01 0.00 0.00 0.00 0.00 0.00 0.00 0.00 0.00 0.00 0.00 0.00 0.00 0.00 0.00 0.00 0.00 0.00 0.00 0.00 0.00 0.00 0.00
0.16 0.07 0.03 0.00 0.00 0.00 0.00 0.00 0.01 0.00 0.00 0.01 0.01 0.02 0.04 0.04 0.02 0.01 0.00 0.00 0.00 0.00 0.00 0.00 0.00 0.00 0.00 0.00 0.00 0.00 0.00 0.00 0.00 0.00 0.00 0.00 0.00 0.00 0.00 0.00 0.00 0.00 0.00
0.01 0.00 0.00 0.00 0.00 0.00 0.00 0.00 0.00 0.00 0.00 0.00 0.01 0.01 0.02 0.02 0.00 0.00 0.00 0.00 0.00 0.00 0.00 0.00 0.00 0.00 0.00 0.00 0.00 0.00 0.00 0.00 0.00 0.00 0.00 0.00 0.00 0.00 0.00 0.00 0.00 0.00 0.00
0.00 0.00 0.00 0.00 0.00 0.00 0.00 0.00 0.00 0.00 0.00 0.00 0.00 0.00 0.00 0.00 0.00 0.00 0.00 0.00 0.00 0.00 0.00 0.00 0.00 0.00 0.00 0.00 0.00 0.00 0.00 0.00 0.00 0.00 0.00 0.00 0.00 0.00 0.00 0.00 0.00 0.00 0.00
0.00 0.01 0.00 0.00 0.00 0.00 0.00 0.00 0.00 0.00 0.00 0.00 0.00 0.00 0.00 0.00 0.00 0.00 0.00 0.00 0.00 0.00 0.00 0.00 0.00 0.00 0.00 0.00 0.00 0.00 0.00 0.00 0.00 0.00 0.00 0.00 0.00 0.00 0.00 0.00 0.00 0.00 0.00
0.04 0.04 0.01 0.00 0.00 0.00 0.00 0.00 0.00 0.00 0.00 0.00 0.00 0.00 0.00 0.00 0.00 0.00 0.00 0.00 0.00 0.00 0.00 0.00 0.00 0.00 0.00 0.00 0.00 0.00 0.00 0.00 0.00 0.00 0.00 0.00 0.00 0.00 0.00 0.00 0.00 0.00 0.00
0.31 0.31 0.09 0.01 0.00 0.00 0.00 0.00 0.00 0.00 0.00 0.00 0.00 0.00 0.00 0.00 0.00 0.00 0.00 0.00 0.00 0.00 0.00 0.00 0.00 0.00 0.00 0.00 0.00 0.00 0.00 0.00 0.00 0.00 0.00 0.00 0.00 0.00 0.00 0.00 0.00 0.00 0.00
0.89 0.79 0.26 0.07 0.02 0.00 0.00 0.00 0.00 0.00 0.00 0.00 0.00 0.00 0.00 0.00 0.00 0.00 0.00 0.00 0.00 0.00 0.00 0.00 0.00 0.00 0.00 0.00 0.00 0.00 0.00 0.00 0.00 0.00 0.00 0.00 0.00 0.00 0.00 0.00 0.00 0.00 0.00
1.45 1.11 0.47 0.25 0.11 0.03 0.01 0.01 0.01 0.00 0.00 0.00 0.00 0.00 0.00 0.00 0.00 0.00 0.00 0.01 0.01 0.01 0.01 0.02 0.02 0.01 0.01 0.00 0.00 0.00 0.00 0.00 0.00 0.00 0.00 0.00 0.00 0.00 0.00 0.00 0.00 0.00 0.00
0.63 0.58 0.45 0.33 0.18 0.08 0.06 0.04 0.02 0.01 0.00 0.00 0.00 0.00 0.00 0.00 0.01 0.01 0.00 0.02 0.02 0.03 0.02 0.01 0.01 0.01 0.01 0.00 0.01 0.00 0.00 0.00 0.00 0.00 0.00 0.00 0.00 0.00 0.00 0.00 0.00 0.00 0.00
0.25 0.36 0.36 0.31 0.19 0.11 0.08 0.06 0.05 0.02 0.01 0.01 0.02 0.04 0.02 0.01 0.01 0.01 0.02 0.01 0.01 0.01 0.01 0.01 0.01 0.01 0.00 0.00 0.01 0.00 0.00 0.00 0.00 0.00 0.00 0.00 0.00 0.00 0.00 0.00 0.00 0.00 0.00
0.15 0.29 0.31 0.24 0.17 0.11 0.09 0.07 0.08 0.07 0.06 0.06 0.09 0.12 0.08 0.05 0.03 0.01 0.01 0.00 0.00 0.00 0.00 0.01 0.01 0.01 0.01 0.00 0.00 0.01 0.00 0.00 0.00 0.00 0.00 0.00 0.00 0.00 0.00 0.00 0.00 0.00 0.00
0.14 0.19 0.20 0.15 0.11 0.09 0.09 0.09 0.09 0.11 0.14 0.15 0.10 0.11 0.07 0.03 0.01 0.00 0.00 0.00 0.00 0.00 0.00 0.00 0.00 0.01 0.01 0.00 0.00 0.00 0.00 0.00 0.00 0.00 0.00 0.00 0.00 0.00 0.00 0.00 0.00 0.00 0.00
0.07 0.08 0.08 0.06 0.06 0.05 0.05 0.06 0.08 0.09 0.09 0.05 0.03 0.02 0.01 0.00 0.00 0.00 0.00 0.00 0.00 0.00 0.00 0.00 0.00 0.00 0.00 0.00 0.00 0.00 0.00 0.00 0.00 0.01 0.00 0.00 0.00 0.00 0.00 0.00 0.00 0.00 0.00
0.01 0.01 0.02 0.03 0.03 0.03 0.04 0.04 0.04 0.03 0.01 0.00 0.00 0.00 0.00 0.00 0.00 0.00 0.00 0.00 0.00 0.00 0.00 0.00 0.00 0.00 0.00 0.01 0.01 0.01 0.01 0.01 0.01 0.02 0.01 0.00 0.00 0.00 0.00 0.00 0.00 0.00 0.00